Weather in Neelovo 1-e

Russia / Pskov Oblast     57°47′34″N   28°12′05″E
temp.,
°C
wind,
m/s
gust,
m/s
humid.,
%
clouds,
%
prec.,
mm/h
press.,
hPa
HPBL,
m
22 january, sat
sat2200:00−5n399593 0.0 1001268
03:00−5n489498 0.1 1004437
06:00−5nnw51191100 0.0 1007515
09:00−3n61388100 0.3 1009962
12:00−3nnw61087100 0.1 1011773
15:00−4nnw588996 0.2 1013547
18:00−6n499299 0.1 1016417
21:00−6n389492 0.2 1018389
23 january, sun
sun2300:00−8n259770 0.1 1020105
03:00−11n249873 0.1 102365
06:00−12nnw119866 0.0 102513
09:00−13e119864 0.0 102710
12:00−10ssw0090100 0.0 103091
15:00−7ssw228695 0.0 1031159
18:00−9s259472 0.0 103299
21:00−10s259579 0.0 103379
24 january, mon
mon2400:00−8s389185 0.0 1034180
03:00−8s4108981 0.0 1035236
06:00−8s498935 0.0 1034217
09:00−9s411885 0.0 1034233
12:00−7s512835 0.0 1033335
15:00−5s614785 0.0 1031490
18:00−6s615815 0.0 1030439
21:00−6s61682100 0.0 1027447
25 january, tue
tue2500:00−5s71585100 0.0 1025512
03:00−4ssw61492100 0.1 1022543
06:00−3ssw51392100 0.1 1019480
09:00−2ssw51296100 0.8 1018465
12:000wsw41097100 1.4 1017564
15:00+1nw389085 1.5 1017468
18:00−3nw399452 0.0 1018181
21:00−2nw5988100 0.0 1020710
26 january, wed
wed2600:00−3nw4993100 0.1 1021382
03:00−3n498741 0.1 1023594
06:00−8nnw379752 0.0 1024131
09:00−10nnw369759 0.0 1025101
12:00−8nnw23915 0.0 1025125
15:00−7nw128817 0.0 1024129
18:00−12wnw119860 0.0 102310
21:00−13s229865 0.0 102217